GW4118 Weather Reports


time (UTC)temp
C
wind
direction
speed
KPH
gust
KPH
rain 1hr
cm
rain 24hr
cm
rain mn
cm
humidity
%
barometer
mb
20260505214138 23 192 8.0 20.9 0.00 0.00 0.00 45 1003.1
20260505213539 23 189 11.3 20.9 0.00 0.00 0.00 45 1002.9
20260505213039 24 194 8.0 17.7 0.00 0.00 0.00 44 1002.8
20260505212538 24 169 8.0 30.6 0.00 0.00 0.00 44 1002.7
20260505212038 25 281 14.5 30.6 0.00 0.00 0.00 43 1002.7
20260505211539 25 231 6.4 20.9 0.00 0.00 0.00 44 1002.6
20260505211036 24 219 8.0 20.9 0.00 0.00 0.00 44 1002.7
20260505210536 24 191 11.3 24.1 0.00 0.00 0.00 44 1002.7
20260505210044 24 26 8.0 29.0 0.00 0.00 0.00 44 1002.7
20260505205536 24 198 11.3 29.0 0.00 0.00 0.00 44 1002.6
20260505205034 25 349 6.4 22.5 0.00 0.00 0.00 44 1002.6
20260505204533 25 189 6.4 22.5 0.00 0.00 0.00 44 1002.6
20260505204033 25 248 8.0 17.7 0.00 0.00 0.00 44 1002.7
20260505203532 25 101 8.0 17.7 0.00 0.00 0.00 44 1002.8
20260505203033 25 184 6.4 17.7 0.00 0.00 0.00 43 1002.8
20260505202533 25 187 4.8 19.3 0.00 0.00 0.00 44 1002.7
20260505202032 25 159 11.3 20.9 0.00 0.00 0.00 42 1002.8
20260505201530 25 267 9.7 20.9 0.00 0.00 0.00 42 1002.7
20260505201030 25 216 6.4 16.1 0.00 0.00 0.00 43 1002.8
20260505200529 25 200 6.4 17.7 0.00 0.00 0.00 42 1002.8
20260505200029 25 188 6.4 17.7 0.00 0.00 0.00 42 1002.8
20260505195528 25 198 8.0 16.1 0.00 0.00 0.00 43 1003.0
20260505195027 25 239 4.8 16.1 0.00 0.00 0.00 43 1003.0
20260505194527 26 241 6.4 19.3 0.00 0.00 0.00 43 1003.1
20260505194029 26 162 4.8 22.5 0.00 0.00 0.00 41 1003.2
20260505193525 26 150 11.3 22.5 0.00 0.00 0.00 41 1003.2
20260505193034 26 141 12.9 20.9 0.00 0.00 0.00 40 1003.1
20260505192524 27 47 9.7 24.1 0.00 0.00 0.00 40 1003.1
20260505192025 27 227 8.0 29.0 0.00 0.00 0.00 40 1003.2
20260505191524 27 207 4.8 17.7 0.00 0.00 0.00 40 1003.1
20260505191024 28 205 6.4 19.3 0.00 0.00 0.00 37 1003.2
20260505190526 28 225 9.7 19.3 0.00 0.00 0.00 36 1003.4
20260505190022 29 191 11.3 16.1 0.00 0.00 0.00 32 1003.5
20260505185521 28 248 8.0 30.6 0.00 0.00 0.00 35 1003.5
20260505185022 27 260 11.3 30.6 0.00 0.00 0.00 33 1003.6
20260505184519 27 187 6.4 22.5 0.00 0.00 0.00 35 1003.8
20260505184019 28 222 12.9 22.5 0.00 0.00 0.00 33 1003.8
20260505183518 28 225 11.3 24.1 0.00 0.00 0.00 34 1003.9
20260505183022 28 257 11.3 24.1 0.00 0.00 0.00 34 1003.9
20260505182516 28 190 8.0 17.7 0.00 0.00 0.00 34 1004.1
20260505182014 28 208 6.4 20.9 0.00 0.00 0.00 33 1004.1
20260505181514 27 247 8.0 25.7 0.00 0.00 0.00 35 1004.2
20260505181018 27 248 11.3 37.0 0.00 0.00 0.00 34 1004.2
20260505180512 27 192 8.0 37.0 0.00 0.00 0.00 35 1004.2
20260505180010 27 209 11.3 22.5 0.00 0.00 0.00 37 1004.3
20260505175510 27 205 9.7 17.7 0.00 0.00 0.00 36 1004.4
20260505175010 27 208 9.7 17.7 0.00 0.00 0.00 36 1004.5
20260505174507 27 200 9.7 17.7 0.00 0.00 0.00 37 1004.6
20260505174006 27 172 8.0 20.9 0.00 0.00 0.00 37 1004.5
20260505173505 26 271 4.8 20.9 0.00 0.00 0.00 38 1004.7
20260505173005 27 252 9.7 17.7 0.00 0.00 0.00 38 1004.7
20260505172507 26 182 6.4 17.7 0.00 0.00 0.00 38 1004.9
20260505172003 26 182 9.7 20.9 0.00 0.00 0.00 39 1005.0
20260505171503 27 270 6.4 17.7 0.00 0.00 0.00 38 1005.1
20260505171002 26 240 6.4 19.3 0.00 0.00 0.00 39 1005.0
20260505170600 26 234 3.2 19.3 0.00 0.00 0.00 40 1005.1
20260505170058 26 140 6.4 14.5 0.00 0.00 0.00 39 1005.2
20260505165557 26 130 4.8 16.1 0.00 0.00 0.00 40 1005.5
20260505165056 26 200 8.0 20.9 0.00 0.00 0.00 42 1005.6
20260505164602 25 205 12.9 20.9 0.00 0.00 0.00 39 1005.7
20260505164055 25 226 8.0 20.9 0.00 0.00 0.00 39 1005.8
20260505163554 25 210 8.0 22.5 0.00 0.00 0.00 44 1005.8
20260505163053 25 165 11.3 22.5 0.00 0.00 0.00 40 1006.1
20260505162551 25 252 6.4 24.1 0.00 0.00 0.00 42 1006.3
20260505162049 25 189 8.0 24.1 0.00 0.00 0.00 42 1006.3
20260505161555 23 203 6.4 19.3 0.00 0.00 0.00 42 1006.4
20260505161048 24 175 1.6 17.7 0.00 0.00 0.00 43 1006.5
20260505160550 24 232 6.4 17.7 0.00 0.00 0.00 42 1006.7
20260505153045 23 252 8.0 16.1 0.00 0.00 0.00 42 1007.0
20260505152541 23 328 8.0 16.1 0.00 0.00 0.00 45 1007.2
20260505152037 22 191 4.8 16.1 0.00 0.00 0.00 44 1007.2
20260505151537 22 217 6.4 16.1 0.00 0.00 0.00 44 1007.4
20260505151039 22 194 3.2 16.1 0.00 0.00 0.00 45 1007.5
20260505150536 22 211 8.0 20.9 0.00 0.00 0.00 44 1007.6
20260505140526 20 254 8.0 16.1 0.00 0.00 0.00 49 1007.2
20260505125011 17 263 1.6 6.4 0.00 0.00 0.00 55 1008.3
20260505124510 17 112 1.6 8.0 0.00 0.00 0.00 55 1007.9
20260505124008 16 172 1.6 8.0 0.00 0.00 0.00 57 1007.8
20260505123506 16 134 0.0 9.7 0.00 0.00 0.00 56 1007.7
20260505123010 16 257 0.0 9.7 0.00 0.00 0.00 57 1007.8
20260505122504 16 207 0.0 9.7 0.00 0.00 0.00 57 1007.8
20260505122005 16 171 3.2 9.7 0.00 0.00 0.00 58 1007.9
20260505121503 16 222 0.0 9.7 0.00 0.00 0.00 59 1008.0
20260505121100 15 213 1.6 9.7 0.00 0.00 0.00 59 1008.0
20260505120558 15 148 1.6 9.7 0.00 0.00 0.00 60 1008.0
20260505120105 15 149 3.2 6.4 0.00 0.00 0.00 60 1008.0
20260505115555 15 186 0.0 6.4 0.00 0.00 0.00 62 1008.1
20260505115055 15 146 0.0 9.7 0.00 0.00 0.00 63 1008.2
20260505114555 15 161 3.2 9.7 0.00 0.00 0.00 61 1008.1
20260505114054 14 172 0.0 8.0 0.00 0.00 0.00 66 1008.2
20260505113551 14 202 4.8 9.7 0.00 0.00 0.00 64 1008.3
20260505113109 13 200 1.6 9.7 0.00 0.00 0.00 67 1008.3
20260505112550 12 143 1.6 4.8 0.00 0.00 0.00 70 1008.3
20260505112047 12 310 0.0 9.7 0.00 0.00 0.00 74 1008.4
20260505111648 11 121 3.2 9.7 0.00 0.00 0.00 75 1008.4
20260505111048 11 138 0.0 3.2 0.00 0.00 0.00 79 1008.4
20260505110544 10 80 0.0 3.2 0.00 0.00 0.00 81 1008.1
20260505102038 6 114 0.0 1.6 0.00 0.00 0.00 88 1008.4
20260505101539 6 114 0.0 3.2 0.00 0.00 0.00 88 1008.4
20260505101041 6 114 0.0 3.2 0.00 0.00 0.00 88 1008.4
20260505100538 6 114 0.0 3.2 0.00 0.00 0.00 89 1008.4
20260505100035 6 114 0.0 1.6 0.00 0.00 0.00 89 1008.3
20260505095534 6 186 0.0 3.2 0.00 0.00 0.00 89 1008.3
20260505095034 6 186 0.0 3.2 0.00 0.00 0.00 89 1008.3
20260505094534 6 186 0.0 3.2 0.00 0.00 0.00 89 1008.3
20260505094034 6 186 0.0 0.0 0.00 0.00 0.00 89 1008.3
20260505093532 6 186 0.0 0.0 0.00 0.00 0.00 89 1008.3
20260505093032 6 186 0.0 0.0 0.00 0.00 0.00 89 1008.3
20260505092531 6 186 0.0 0.0 0.00 0.00 0.00 89 1008.3
20260505092031 6 186 0.0 0.0 0.00 0.00 0.00 89 1008.3
20260505091530 6 186 0.0 0.0 0.00 0.00 0.00 89 1008.4
20260505091030 6 186 0.0 0.0 0.00 0.00 0.00 88 1008.4
20260505090530 6 186 0.0 0.0 0.00 0.00 0.00 88 1008.4
20260505090029 6 186 0.0 0.0 0.00 0.00 0.00 88 1008.3
20260505085530 6 186 0.0 0.0 0.00 0.00 0.00 88 1008.4
20260505085027 6 186 0.0 0.0 0.00 0.00 0.00 87 1008.3
20260505084542 6 198 0.0 3.2 0.00 0.00 0.00 87 1008.4
20260505084026 7 198 0.0 3.2 0.00 0.00 0.00 87 1008.4
20260505083525 7 198 0.0 1.6 0.00 0.00 0.00 86 1008.5
20260505083125 7 227 0.0 1.6 0.00 0.00 0.00 86 1008.6
20260505082524 7 227 0.0 1.6 0.00 0.00 0.00 86 1008.6
20260505082024 7 174 0.0 3.2 0.00 0.00 0.00 86 1008.7
20260505081523 7 90 0.0 3.2 0.00 0.00 0.00 86 1008.7
20260505081025 7 216 0.0 0.0 0.00 0.00 0.00 86 1008.7
20260505080522 7 216 0.0 1.6 0.00 0.00 0.00 85 1008.7
20260505080023 7 216 0.0 1.6 0.00 0.00 0.00 85 1008.7
20260505075522 7 134 0.0 3.2 0.00 0.00 0.00 85 1008.7
20260505075021 7 205 0.0 3.2 0.00 0.00 0.00 85 1008.6
20260505074521 7 184 0.0 1.6 0.00 0.00 0.00 84 1008.6
20260505074022 7 225 0.0 0.0 0.00 0.00 0.00 84 1008.7
20260505073520 7 225 0.0 0.0 0.00 0.00 0.00 83 1008.7
20260505073019 7 225 0.0 0.0 0.00 0.00 0.00 83 1008.6
20260505072518 7 225 0.0 0.0 0.00 0.00 0.00 82 1008.6
20260505072021 7 225 0.0 3.2 0.00 0.00 0.00 82 1008.6
20260505071519 8 225 0.0 3.2 0.00 0.00 0.00 81 1008.6
20260505071015 8 213 0.0 3.2 0.00 0.00 0.00 80 1008.6
20260505070519 8 214 0.0 3.2 0.00 0.00 0.00 80 1008.6
20260505070014 8 253 0.0 3.2 0.00 0.00 0.00 79 1008.7
20260505065516 8 253 0.0 3.2 0.00 0.00 0.00 78 1008.7
20260505065012 8 253 0.0 1.6 0.00 0.00 0.00 78 1008.6
20260505064512 8 253 0.0 0.0 0.00 0.00 0.00 78 1008.7
20260505064017 8 253 0.0 0.0 0.00 0.00 0.00 78 1008.7
20260505063510 8 253 0.0 1.6 0.00 0.00 0.00 77 1008.7
20260505063010 9 253 0.0 0.0 0.00 0.00 0.00 76 1008.6
20260505062509 9 253 0.0 1.6 0.00 0.00 0.00 76 1008.6
20260505062010 9 253 0.0 1.6 0.00 0.00 0.00 75 1008.6
20260505061512 9 252 0.0 0.0 0.00 0.00 0.00 75 1008.6
20260505061009 10 252 0.0 0.0 0.00 0.00 0.00 74 1008.7
20260505060508 10 252 0.0 0.0 0.00 0.00 0.00 73 1008.7
20260505060009 10 252 0.0 3.2 0.00 0.00 0.00 72 1008.7
20260505055509 10 252 0.0 3.2 0.00 0.00 0.00 71 1008.6
20260505055008 11 265 0.0 3.2 0.00 0.00 0.00 70 1008.5
20260505054508 11 265 0.0 3.2 0.00 0.00 0.00 68 1008.6
20260505054011 11 265 0.0 3.2 0.00 0.00 0.00 67 1008.6
20260505053507 11 265 0.0 3.2 0.00 0.00 0.00 65 1008.7
20260505053006 12 265 0.0 1.6 0.00 0.00 0.00 65 1008.7
20260505052506 12 323 0.0 3.2 0.00 0.00 0.00 64 1008.7
20260505052005 12 323 0.0 3.2 0.00 0.00 0.00 64 1008.6
20260505051510 12 270 0.0 3.2 0.00 0.00 0.00 64 1008.7
20260505051004 12 223 0.0 8.0 0.00 0.00 0.00 64 1008.6
20260505050506 12 200 0.0 8.0 0.00 0.00 0.00 65 1008.6
20260505041552 9 235 3.2 9.7 0.00 0.00 0.00 76 1008.1
20260505041053 9 241 1.6 8.0 0.00 0.00 0.00 78 1008.2
20260505040554 9 196 1.6 8.0 0.00 0.00 0.00 79 1008.0
20260505040048 8 242 1.6 6.4 0.00 0.00 0.00 80 1007.9
20260505035551 8 230 0.0 8.0 0.00 0.00 0.00 82 1007.8
20260505035048 8 213 1.6 8.0 0.00 0.00 0.00 82 1007.8
20260505034610 9 66 0.0 1.6 0.00 0.00 0.00 82 1007.8
20260505034048 9 66 0.0 0.0 0.00 0.00 0.00 82 1007.7
20260505033547 9 66 0.0 0.0 0.00 0.00 0.00 81 1007.6
20260505033052 9 66 0.0 0.0 0.00 0.00 0.00 80 1007.6
20260505032547 10 66 0.0 0.0 0.00 0.00 0.00 80 1007.6
20260505032046 10 66 0.0 0.0 0.00 0.00 0.00 79 1007.7
20260505031546 10 66 0.0 0.0 0.00 0.00 0.00 79 1007.5
20260505031046 10 66 0.0 0.0 0.00 0.00 0.00 78 1007.5
20260505030546 10 66 0.0 0.0 0.00 0.00 0.00 76 1007.6
20260505030046 11 66 0.0 3.2 0.00 0.00 0.00 75 1007.6
20260505025546 11 66 0.0 3.2 0.00 0.00 0.00 74 1007.7
20260505025045 11 66 0.0 3.2 0.00 0.00 0.00 75 1007.6
20260505024547 10 68 1.6 3.2 0.00 0.00 0.00 75 1007.6
20260505024045 10 80 0.0 1.6 0.00 0.00 0.00 77 1007.6
20260505023545 10 130 0.0 1.6 0.00 0.00 0.00 77 1007.6
20260505023048 11 72 0.0 3.2 0.00 0.00 0.00 76 1007.6
20260505022548 10 176 0.0 3.2 0.00 0.00 0.00 79 1007.6
20260505022045 10 184 0.0 1.6 0.00 0.00 0.00 79 1007.6
20260505021545 10 200 0.0 0.0 0.00 0.00 0.00 80 1007.7
20260505021044 10 256 0.0 0.0 0.00 0.00 0.00 79 1007.6
20260505020544 11 256 0.0 0.0 0.00 0.00 0.00 79 1007.6
20260505020044 11 256 0.0 0.0 0.00 0.00 0.00 79 1007.6
20260505015544 11 256 0.0 0.0 0.00 0.00 0.00 80 1007.5
20260505015045 11 256 0.0 0.0 0.00 0.00 0.00 80 1007.5
20260505014544 11 256 0.0 0.0 0.00 0.00 0.00 80 1007.4
20260505014044 11 256 0.0 0.0 0.00 0.00 0.00 79 1007.3
20260505013543 11 256 0.0 0.0 0.00 0.00 0.00 79 1007.3
20260505013043 11 256 0.0 0.0 0.00 0.00 0.00 78 1007.3
20260505012542 11 256 0.0 0.0 0.00 0.00 0.00 78 1007.2
20260505012042 11 256 0.0 0.0 0.00 0.00 0.00 78 1007.2
20260505011603 11 256 0.0 1.6 0.00 0.00 0.00 78 1007.2
20260505011043 11 256 0.0 3.2 0.00 0.00 0.00 77 1007.1
20260505010542 11 249 0.0 1.6 0.00 0.00 0.00 77 1007.0
20260505010046 11 246 0.0 1.6 0.00 0.00 0.00 76 1007.0
20260505005542 11 211 0.0 0.0 0.00 0.00 0.00 76 1006.9
20260505005041 11 210 0.0 0.0 0.00 0.00 0.00 75 1006.8
20260505004541 11 210 0.0 0.0 0.00 0.00 0.00 75 1006.8
20260505004040 11 202 0.0 0.0 0.00 0.00 0.00 74 1006.7
20260505003540 12 202 0.0 0.0 0.00 0.00 0.00 73 1006.5
20260505003040 12 202 0.0 3.2 0.00 0.00 0.00 73 1006.5
20260505002541 12 202 0.0 3.2 0.00 0.00 0.00 72 1006.5
20260505002040 12 202 0.0 3.2 0.00 0.00 0.00 71 1006.4
20260505001540 12 200 0.0 0.0 0.00 0.00 0.00 70 1006.4
20260505001039 13 200 0.0 0.0 0.00 0.00 0.00 69 1006.3
20260505000539 13 200 0.0 0.0 0.00 0.00 0.00 68 1006.2
20260505000050 13 200 0.0 3.2 0.00 0.00 0.00 67 1006.1
20260504235539 14 200 0.0 0.0 0.00 0.00 0.00 66 1006.1
20260504235039 14 195 0.0 3.2 0.00 0.00 0.00 64 1006.0
20260504234538 15 195 0.0 3.2 0.00 0.00 0.00 63 1005.9
20260504234038 15 194 0.0 3.2 0.00 0.00 0.00 62 1005.9
20260504233539 16 169 0.0 3.2 0.00 0.00 0.00 60 1005.8
20260504233051 16 169 0.0 3.2 0.00 0.00 0.00 58 1005.8
20260504232537 17 169 0.0 3.2 0.00 0.00 0.00 58 1005.9
20260504232036 17 169 0.0 0.0 0.00 0.00 0.00 52 1005.9
20260504231537 17 169 0.0 3.2 0.00 0.00 0.00 49 1005.8
20260504231037 18 169 0.0 3.2 0.00 0.00 0.00 48 1005.7
20260504230536 18 169 0.0 1.6 0.00 0.00 0.00 49 1005.7
20260504230035 18 169 0.0 1.6 0.00 0.00 0.00 46 1005.7
20260504225636 18 178 0.0 3.2 0.00 0.00 0.00 45 1005.5
20260504225034 18 151 0.0 3.2 0.00 0.00 0.00 44 1005.4
20260504224541 18 250 0.0 3.2 0.00 0.00 0.00 42 1005.3
20260504224033 19 252 0.0 3.2 0.00 0.00 0.00 42 1005.2
20260504223533 19 244 0.0 3.2 0.00 0.00 0.00 40 1005.3
20260504223033 19 280 0.0 1.6 0.00 0.00 0.00 40 1005.3
20260504222532 19 302 0.0 3.2 0.00 0.00 0.00 39 1005.4
20260504222031 19 239 0.0 3.2 0.00 0.00 0.00 39 1005.2
20260504221530 19 180 0.0 3.2 0.00 0.00 0.00 40 1005.3
20260504221030 19 136 0.0 3.2 0.00 0.00 0.00 41 1005.4
20260504220530 19 240 0.0 3.2 0.00 0.00 0.00 39 1005.4
20260504220030 19 144 0.0 3.2 0.00 0.00 0.00 40 1005.4
20260504215530 19 269 0.0 3.2 0.00 0.00 0.00 40 1005.5
20260504215028 19 231 0.0 6.4 0.00 0.00 0.00 41 1005.4
20260504214529 19 232 0.0 6.4 0.00 0.00 0.00 42 1005.5